Loging...

KPDC, Korea Polar Data Center

Korea Polar Data Center Scientific observations and results from Antarctica shall
be exchanged and made freely available

Keyword Search

Advanced Search

Search 28,372 data out of 28,372

Metadata Search Results1
No. Title Reg. Date
1 [KOPRI-KPDC-00001396]Wind data on ARAON DaDis for Arctic cruise, 2019 2020-02-05
2 [KOPRI-KPDC-00001427]Ship-borne radiosonde observation data over the Arctic Ocean in the 2018 Araon summer expedition(ARA09B,ARA09C) 2020-02-03
3 [KOPRI-KPDC-00001426]Ship-borne radiosonde observation data over the Arctic Ocean in the 2017 Araon summer expedition(ARA08B,ARA08C) 2020-02-03
4 [KOPRI-KPDC-00001425]Ship-borne radiosonde observation data over the Arctic Ocean in the 2016 Araon summer expedition(ARA07B,ARA07C) 2020-02-03
5 [KOPRI-KPDC-00000601]Depth profiles of temperature and salinity in the Ross Sea, Antarctica, in December 2015 2020-01-28
6 [KOPRI-KPDC-00000749]NIWA oceanographic mooring data in the Drygalski Ice Tongue North 2016 2020-01-28
7 [KOPRI-KPDC-00000906]NIWA oceanographic deep mooring data in the Drygalski Ice Tongue 2017 2020-01-28
8 [KOPRI-KPDC-00000898]NIWA oceanographic mooring data in the Drygalski Ice Tongue North 2017 2020-01-28
9 [KOPRI-KPDC-00001060]NIWA oceanographic mooring data in the Drygalski Ice Tongue North 2015 2020-01-28
10 [KOPRI-KPDC-00000896]LADCP data observed in the Terra Nova Bay, Ross Sea, in March, 2018 (ANA08C) 2020-01-28
11 [KOPRI-KPDC-00001065]LADCP data observed in the Terra Nova Bay, Ross Sea, in January, 2017 (ANA07C) 2020-01-28
12 [KOPRI-KPDC-00001061]LADCP data observed in the Terra Nova Bay, Ross Sea, in December, 2015 (ANA06A) 2020-01-28
13 [KOPRI-KPDC-00001064]LADCP data observed in the Terra Nova Bay, Ross Sea, in December, 2014 (ANA05A) 2020-01-28
14 [KOPRI-KPDC-00000895]CTD profiles observed in the Terra Nova Bay, Ross Sea, in March, 2018 (ANA08C) 2020-01-28
15 [KOPRI-KPDC-00001063]CTD profiles observed in the Terra Nova Bay, Ross Sea, in January, 2017 (ANA07C) 2020-01-28
16 [KOPRI-KPDC-00001062]CTD profiles observed in the Terra Nova Bay, Ross Sea, in December, 2014 (ANA05A) 2020-01-28
17 [KOPRI-ANTAGEN-00000008]Mirounga leonina 2020-01-26
18 [KOPRI-KPDC-00001422]Surface observation of CH4 in the atmosphere and ocean 2020-01-09
19 [KOPRI-KPDC-00001424]Manganese nodule samples in the East siberian shelf (2019 ARA10C cruise) 2019-12-18
20 [KOPRI-KPDC-00001423]2019 Arctic Araon Cruise (ARA10C) sediment cores (multiple, gravity, and box cores) 2019-12-16
21 [KOPRI-KPDC-00001421]Hydrocasting observation of conductivity, temperature, and depth (CTD) 2019-12-16
22 [KOPRI-KPDC-00001420]Marine heat flow in Chukchi Plateau and East Siberian shelf areas on Arctic ocean 2019-12-13
23 [KOPRI-KPDC-00001224]ANA09B Seismic Sparker Survey Lines 2019-12-13
24 [KOPRI-KPDC-00001408]ARA10C Sub-bottom profiler Survey Data 2019-12-13
25 [KOPRI-KPDC-00001409]ARA10C Multi-Channel Seismic Survey Data 2019-12-13
26 [KOPRI-KPDC-00001419]Wind data on ARAON DaDis for Antarctic cruise, 2018/2019 2019-12-11
27 [KOPRI-KOREAMET-00000068]Elephant Moraine 13002 2019-12-05
28 [KOPRI-KVH-00002390]Monostroma hariotii Gain (KOPRI-CH3393) 2019-11-26
29 [KOPRI-KVH-00002240]Monostroma hariotii Gain (KOPRI-CH3292) 2019-11-26
30 [KOPRI-KVH-00002388]Monostroma hariotii Gain (KOPRI-CH3391) 2019-11-26
31 [KOPRI-KVH-00002387]Monostroma hariotii Gain (KOPRI-CH3390) 2019-11-26
32 [KOPRI-KVH-00002386]Monostroma hariotii Gain (KOPRI-CH3389) 2019-11-26
33 [KOPRI-KVH-00002385]Monostroma hariotii Gain (KOPRI-CH3388) 2019-11-26
34 [KOPRI-KVH-00002384]Monostroma hariotii Gain (KOPRI-CH3387) 2019-11-26
35 [KOPRI-KVH-00002383]Monostroma hariotii Gain (KOPRI-CH3386) 2019-11-26
36 [KOPRI-KVH-00002241]Monostroma hariotii Gain (KOPRI-CH3293) 2019-11-26
37 [KOPRI-KVH-00002239]Monostroma hariotii Gain (KOPRI-CH3291) 2019-11-26
38 [KOPRI-KVH-00002238]Monostroma hariotii Gain (KOPRI-CH3290) 2019-11-26
39 [KOPRI-KVH-00002236]Monostroma hariotii Gain (KOPRI-CH3288) 2019-11-26
40 [KOPRI-KVH-00002206]Monostroma hariotii Gain (KOPRI-CH3258) 2019-11-26
41 [KOPRI-KVH-00002205]Monostroma hariotii Gain (KOPRI-CH3257) 2019-11-26
42 [KOPRI-KVH-00002204]Monostroma hariotii Gain (KOPRI-CH3256) 2019-11-26
43 [KOPRI-KVH-00002190]Monostroma hariotii on Kallymenia antarctica Gain (KOPRI-CH3241) 2019-11-26
44 [KOPRI-KVH-00002189]Monostroma hariotii Gain (KOPRI-CH3240) 2019-11-26
45 [KOPRI-KVH-00002188]Monostroma hariotii Gain (KOPRI-CH3239) 2019-11-26
46 [KOPRI-KVH-00002187]Monostroma hariotii Gain (KOPRI-CH3238) 2019-11-26
47 [KOPRI-KVH-00002186]Monostroma hariotii on Iridaea cordata Gain (KOPRI-CH3237) 2019-11-26
48 [KOPRI-KVH-00002441]Monostroma hariotii Gain (KOPRI-CH3226) 2019-11-26
49 [KOPRI-KVH-00002440]Monostroma hariotii Gain (KOPRI-CH3225) 2019-11-26
50 [KOPRI-KVH-00002439]Monostroma hariotii Gain (KOPRI-CH3224) 2019-11-26
51 [KOPRI-KVH-00002438]Monostroma hariotii Gain (KOPRI-CH3223) 2019-11-26
52 [KOPRI-KVH-00002437]Monostroma hariotii Gain (KOPRI-CH3222) 2019-11-26
53 [KOPRI-KVH-00002436]Monostroma hariotii Gain (KOPRI-CH3221) 2019-11-26
54 [KOPRI-KVH-00002435]Monostroma hariotii Gain (KOPRI-CH3220) 2019-11-26
55 [KOPRI-KVH-00002434]Monostroma hariotii Gain (KOPRI-CH3219) 2019-11-26
56 [KOPRI-KVH-00002433]Monostroma hariotii Gain (KOPRI-CH3218) 2019-11-26
57 [KOPRI-KVH-00002432]Monostroma hariotii Gain (KOPRI-CH3217) 2019-11-26
58 [KOPRI-KVH-00002431]Monostroma hariotii Gain (KOPRI-CH3216) 2019-11-26
59 [KOPRI-KOREAMET-00000163]Elephant Moraine 14031 2019-11-20
60 [KOPRI-KVH-00002237]Monostroma hariotii Gain (KOPRI-CH3289) 2019-11-20
61 [KOPRI-KVH-00002391]Monostroma hariotii Gain (KOPRI-CH3394) 2019-11-20
62 [KOPRI-KVH-00002412]Gigartina skottsbergii Setchell et Gardner (KOPRI-CH3446) 2019-11-20
63 [KOPRI-KVH-00002585]Desmarestia anceps R.L. Moe & P.C. Silver (KOPRI-CH3566) 2019-11-20
64 [KOPRI-KVH-00002525]Monostroma hariotii Gain (KOPRI-CH3577) 2019-11-20
65 [KOPRI-KVH-00002526]Monostroma hariotii Gain (KOPRI-CH3578) 2019-11-20
66 [KOPRI-KVH-00002606]Monostroma hariotii Gain (KOPRI-CH3641) 2019-11-20
67 [KOPRI-KVH-00002602]Phaeurus antarcticus Skottsberg (KOPRI-CH3640) 2019-11-20
68 [KOPRI-KVH-00002413]Gigartina skottsbergii Setchell et Gardner (KOPRI-CH3447) 2019-11-19
69 [KOPRI-KVH-00002414]Gigartina skottsbergii Setchell et Gardner (KOPRI-CH3448) 2019-11-19
70 [KOPRI-KVH-00002487]Gigartina skottsbergii Setchell et Gardner (KOPRI-CH3534) 2019-11-19
71 [KOPRI-KVH-00002587]Kallymenia antarctica Hariot (KOPRI-CH3568) 2019-11-19
72 [KOPRI-KVH-00002593]Phyllophora antarctica Skottsberg (KOPRI-CH3633) 2019-11-19
73 [KOPRI-KVH-00002594]Phyllophora antarctica Skottsberg (KOPRI-CH3634) 2019-11-19
74 [KOPRI-KVH-00002595]Phyllophora antarctica Skottsberg (KOPRI-CH3635) 2019-11-19
75 [KOPRI-KVH-00002596]Phyllophora antarctica Skottsberg (KOPRI-CH3636) 2019-11-19
76 [KOPRI-KVH-00002597]Phyllophora antarctica Skottsberg (KOPRI-CH3637) 2019-11-19
77 [KOPRI-KVH-00002598]Phyllophora antarctica Skottsberg (KOPRI-CH3638) 2019-11-19
78 [KOPRI-KVH-00002599]Phyllophora antarctica Skottsberg (KOPRI-CH3639) 2019-11-19
79 [KOPRI-KVH-00002590]Iridaea cordata (Turner) Bory de Saint-Vincent (KOPRI-CH3630) 2019-11-19
80 [KOPRI-KPDC-00001407]ARA10C Multibeam Survey 2019-11-19
81 [KOPRI-KPDC-00001418]Eddy covariance data at DASAN Station in 2019 2019-11-13
82 [KOPRI-KPDC-00001417]Eddy covariance data of Russia permafrost site in 2018 2019-11-13
83 [KOPRI-KPDC-00001416]Eddy covariance data of Alaska permafrost site in 2019 2019-11-13
84 [KOPRI-KPDC-00001415]Eddy covariance data of Greenland permafrost site in 2018 2019-11-13
85 [KOPRI-KPDC-00001414]Eddy covariance data of Canada permafrost site in 2018 2019-11-13
86 [KOPRI-KPDC-00001413]NDVI data collected from climate manipulation plots in Cambridge Bay, Canada in 2019 2019-11-13
87 [KOPRI-KPDC-00001412]Air temperature and humidity data collected from climate manipulation plots in Cambridge Bay, Canada in 2019 2019-11-13
88 [KOPRI-KPDC-00001411]CO2/Soil temperature profile of Alaska permafrost site in 2019 2019-11-13
89 [KOPRI-KPDC-00001410]Soil moisture and humidity data collected from climate manipulation plots in Cambridge Bay, Canada in 2019 2019-11-13
90 [KOPRI-KPDC-00001290]Atmospheric ion species measured from Storhofdi, Iceland in 2017 2019-11-13
91 [KOPRI-KPDC-00001406] Black Carbon data at Cambridge Bay station in 2019 2019-11-13
92 [KOPRI-KPDC-00001405]Wind data on ARAON DaDis for Antarctic cruise, 2018/2019 2019-11-12
93 [KOPRI-KPDC-00001404]Wind data on ARAON DaDis for Antarctic cruise, 2017/2018 2019-11-12
94 [KOPRI-KPDC-00001403]Wind data on ARAON DaDis for Antarctic cruise, 2016/2017 2019-11-12
95 [KOPRI-KPDC-00001402]Wind data on ARAON DaDis for Antarctic cruise, 2015/2016 2019-11-12
96 [KOPRI-KPDC-00001401]Wind data on ARAON DaDis for Antarctic cruise, 2014/2015 2019-11-12
97 [KOPRI-KPDC-00001400]Wind data on ARAON DaDis for Antarctic cruise, 2013/2014 2019-11-12
98 [KOPRI-KPDC-00001399]Wind data on ARAON DaDis for Antarctic cruise, 2012/2013 2019-11-12
99 [KOPRI-KPDC-00001398]Wind data on ARAON DaDis for Antarctic cruise, 2011/2012 2019-11-12
100 [KOPRI-KPDC-00001397]Wind data on ARAON DaDis for Antarctic cruise, 2010/2011 2019-11-12